Courmayeur, Italy 16 day weather forecast

Slopes altitude range 1225 m - 2755m

Number of lifts: 18 Pistes: 100km

In some cases the lift and piste totals shown are for the ski domain (e.g. Three Valleys) rather than individual resort (e.g. Courchevel)

Overview

The 16 day weather forecast is fully updated 4 times every day.

    • Tue 17 JUL 2018
    • Tue 17
    • 8C 15C
    • Wed 18 JUL 2018
    • Wed 18
    • 9C 18C
    • Thu 19 JUL 2018
    • Thu 19
    • 10C 18C
    • Fri 20 JUL 2018
    • Fri 20
    • 13C 20C
    • Sat 21 JUL 2018
    • Sat 21
    • 10C 14C
    • Sun 22 JUL 2018
    • Sun 22
    • 8C 14C
    • Mon 23 JUL 2018
    • Mon 23
    • 11C 19C
    • Tue 24 JUL 2018
    • Tue 24
    • 12C 18C
    • Wed 25 JUL 2018
    • Wed 25
    • 11C 16C
    • Thu 26 JUL 2018
    • Thu 26
    • 6C 8C
    • Fri 27 JUL 2018
    • Fri 27
    • 7C 13C
    • Sat 28 JUL 2018
    • Sat 28
    • 8C 14C
    • Sun 29 JUL 2018
    • Sun 29
    • 8C 16C
    • Mon 30 JUL 2018
    • Mon 30
    • 7C 19C
    • Tue 31 JUL 2018
    • Tue 31
    • 8C 20C
    • Wed 01 AUG 2018
    • Wed 01
    • 10C 22C

Date:

Time Type 0°C level Temp Chill Snow Cloud Speed Gust Dir Press
3:00 3433m 7°C 7_2 0cm 97% 2mph 3mph 1016mB
6:00 3451m 7°C 7_3 0cm 96% 3mph 4mph 1017mB
9:00 3518m 8°C 8_6 0cm 78% 6mph 7mph 1016mB
12:00 3577m 15°C 15_8 0cm 64% 8mph 7mph 1016mB
15:00 3718m 15°C 15_7 0cm 58% 7mph 7mph 1015mB
18:00 3881m 15°C 15_5 0cm 60% 5mph 6mph 1016mB
21:00 3978m 8°C 8_2 0cm 66% 2mph 2mph 1018mB
0:00 4052m 7°C 7_3 0cm 64% 3mph 4mph 1018mB
3:00 4087m 5°C 5_4 0cm 35% 4mph 4mph 1018mB
6:00 4096m 5°C 5_3 0cm 18% 3mph 3mph 1018mB
9:00 4090m 9°C 9_4 0cm 0% 4mph 2mph 1017mB
12:00 3984m 18°C 18_6 0cm 0% 6mph 4mph 1015mB
15:00 3974m 18°C 18_7 0cm 0% 7mph 6mph 1015mB
18:00 4024m 18°C 18_6 0cm 1% 6mph 7mph 1015mB
21:00 4021m 8°C 8_1 0cm 5% 1mph 1mph 1018mB
0:00 4060m 7°C 7_4 0cm 7% 4mph 5mph 1018mB
3:00 3984m 6°C 6_4 0cm 1% 4mph 5mph 1018mB
6:00 4054m 6°C 6_2 0cm 1% 2mph 2mph 1017mB
9:00 4109m 10°C 10_4 0cm 0% 4mph 3mph 1016mB
12:00 4061m 18°C 18_6 0cm 0% 6mph 5mph 1016mB
15:00 4085m 19°C 19_7 0cm 0% 7mph 6mph 1015mB
18:00 4097m 19°C 19_5 0cm 0% 5mph 7mph 1015mB
21:00 4115m 9°C 9_3 0cm 0% 3mph 4mph 1017mB
0:00 4115m 9°C 9_6 0cm 26% 6mph 7mph 1017mB
3:00 4064m 9°C 9_6 0cm 91% 6mph 7mph 1016mB
6:00 3965m 9°C 9_5 0cm 93% 5mph 5mph 1016mB
9:00 4026m 13°C 13_2 0cm 94% 2mph 3mph 1015mB
12:00 3996m 20°C 20_5 0cm 80% 5mph 8mph 1013mB
15:00 4016m 20°C 20_5 0cm 97% 5mph 6mph 1012mB
18:00 3945m 20°C 20_4 0cm 92% 4mph 4mph 1013mB
21:00 3730m 10°C 10_5 0cm 100% 5mph 6mph 1015mB
0:00 3786m 9°C 9_6 0cm 99% 6mph 7mph 1015mB
3:00 3782m 9°C 9_4 0cm 98% 4mph 5mph 1014mB
6:00 3699m 8°C 8_3 0cm 97% 3mph 4mph 1015mB
9:00 3696m 10°C 10_4 0cm 94% 4mph 4mph 1014mB
12:00 3718m 14°C 14_6 0cm 88% 6mph 6mph 1014mB
15:00 3743m 14°C 14_7 0cm 60% 7mph 7mph 1014mB
18:00 3715m 14°C 14_5 0cm 73% 5mph 6mph 1015mB
21:00 3693m 8°C 8_2 0cm 86% 2mph 3mph 1017mB
0:00 3747m 8°C 8_1 0cm 87% 1mph 2mph 1017mB
3:00 3830m 7°C 7_3 0cm 81% 3mph 5mph 1017mB
6:00 3869m 7°C 7_4 0cm 82% 4mph 6mph 1017mB
9:00 3942m 8°C 8_7 0cm 65% 7mph 8mph 1016mB
12:00 4012m 14°C 14_8 0cm 76% 8mph 8mph 1016mB
15:00 4043m 14°C 14_8 0cm 89% 8mph 9mph 1015mB
18:00 4066m 14°C 14_6 0cm 84% 6mph 7mph 1016mB
21:00 4182m 8°C 8_3 0cm 61% 3mph 4mph 1018mB
0:00 4261m 6°C 6_3 0cm 47% 3mph 4mph 1018mB
3:00 4301m 6°C 6_4 0cm 0% 4mph 4mph 1017mB
6:00 4322m 6°C 6_3 0cm 0% 3mph 4mph 1017mB
9:00 4362m 11°C 11_3 0cm 0% 3mph 3mph 1016mB
12:00 4256m 19°C 19_5 0cm 0% 5mph 4mph 1014mB
15:00 4276m 19°C 19_6 0cm 38% 6mph 5mph 1013mB
18:00 4332m 19°C 19_5 0cm 26% 5mph 6mph 1013mB
21:00 4315m 9°C 9_3 0cm 0% 3mph 4mph 1014mB
0:00 4219m 9°C 9_5 0cm 10% 5mph 6mph 1014mB
3:00 4116m 9°C 9_4 0cm 100% 4mph 5mph 1013mB
6:00 4051m 9°C 9_2 0cm 100% 2mph 3mph 1012mB
9:00 4014m 12°C 12_4 0cm 99% 4mph 3mph 1011mB
12:00 3944m 18°C 18_6 0cm 99% 6mph 6mph 1010mB
15:00 3960m 18°C 18_7 0cm 99% 7mph 8mph 1009mB
18:00 3963m 18°C 18_5 0cm 98% 5mph 6mph 1009mB
21:00 3963m 9°C 9_2 0cm 74% 2mph 3mph 1010mB
0:00 3953m 8°C 8_4 0cm 53% 4mph 5mph 1009mB
3:00 3911m 8°C 8_5 0cm 91% 5mph 6mph 1009mB
6:00 3812m 7°C 7_3 0cm 91% 3mph 4mph 1009mB
9:00 3739m 11°C 11_1 0cm 98% 1mph 2mph 1008mB
12:00 3844m 16°C 16_2 0cm 98% 2mph 2mph 1008mB
15:00 3862m 14°C 14_3 0cm 99% 3mph 3mph 1009mB
18:00 3735m 14°C 14_5 0cm 100% 5mph 6mph 1011mB
21:00 3716m 8°C 8_4 0cm 99% 4mph 4mph 1012mB
0:00 3660m 7°C 7_3 0cm 99% 3mph 3mph 1012mB
3:00 3612m 7°C 7_3 0cm 99% 3mph 4mph 1012mB
6:00 3553m 6°C 6_3 0cm 99% 3mph 5mph 1012mB
9:00 3577m 6°C 6_4 0cm 98% 4mph 5mph 1012mB
12:00 3703m 8°C 8_4 0cm 98% 4mph 5mph 1011mB
15:00 3674m 7°C 7_3 0cm 98% 3mph 4mph 1011mB
18:00 3719m 8°C 8_5 0cm 99% 5mph 7mph 1012mB
21:00 3776m 7°C 7_4 0cm 100% 4mph 5mph 1013mB
0:00 3782m 6°C 6_3 0cm 99% 3mph 3mph 1013mB
Afternoon 0.177083mm 0.8125 3927m 13°C 13_6 0cm 97% 6mph 8mph 1012mB
Morning 0.8125mm 1 3965m 9°C 9_1 0cm 100% 1mph 3mph 1014mB
Afternoon 0.4375mm 0.4375 4029m 14°C 14_7 0cm 99% 7mph 9mph 1015mB
Morning 0.21875mm 1.75 4183m 10°C 10_1 0cm 90% 1mph 2mph 1017mB
Afternoon 0.0885417mm 1 4128m 16°C 16_6 0cm 68% 6mph 7mph 1015mB
Morning 0.192708mm 2.1875 4280m 10°C 10_2 0cm 75% 2mph 4mph 1018mB
Afternoon 0mm 0 4234m 19°C 19_7 0cm 9% 7mph 5mph 1016mB
Morning 0mm 0 4273m 8°C 8_3 0cm 9% 3mph 4mph 1018mB
Afternoon 0mm 0 4402m 20°C 20_6 0cm 0% 6mph 4mph 1015mB
Morning 0mm 0 4431m 10°C 10_4 0cm 18% 4mph 4mph 1017mB
Afternoon 0.0104167mm 0.125 4467m 22°C 22_5 0cm 22% 5mph 4mph 1014mB
Morning 0.145833mm 1.75 4467m 11°C 11_4 0cm 41% 4mph 5mph 1017mB

16 day outlook at a glance

Forecast issued: 17/07/2018 12:14:56

Chat

Your comments and questions. In a resort? Let us know what it's like!


Characters left 250

For terms and conditions see Readers Comments on the Cookie and privacy policy page.